User: anonymous
Location: Unspecified
(0.0000°N, 0.0000°E)
Time: 13:30:43
(UTC+00:00)
Language:

USA 224 - Orbit

View from above orbital plane
View from above orbital plane
View from above satellite
View from above satellite

Ground track
Ground track

The orbit data is extracted from the following two-line orbital elements,

1 37348U 11002A   14209.98924028 0.00018500  00000-0  17669-3 0    06
2 37348  97.9202 322.1884 0512839  46.5158 313.4840 14.82293596    03
Epoch (UTC): 28 July 2014 23:44:30
Eccentricity: 0.0512839
inclination: 97.9202°
perigee height: 263 km
apogee height: 981 km
right ascension of ascending node: 322.1884°
argument of perigee: 46.5158°
revolutions per day: 14.82293596
mean anomaly at epoch: 313.4840°
orbit number at epoch: 0

The dashed part of the orbit path shows where the satellite is in the earth's shadow,  

DLR